Lapse_Rate
4.8 5.2 5.5 6.5 4.0 3.9 3.9 3.9 3.7 3.5 3.7 3.8 4.0 4.4 4.7 5.1 5.0 5.1 5.2 5.5 5.9 5.9 6.0 5.9 6.2 5.7 5.8 5.8 5.8 5.7 5.1 5.1
4.1 3.8 5.5 5.1 4.0 4.0 3.8 3.6 3.9 3.6 3.5 4.1 4.6 4.8 5.2 5.0 5.0 4.9 5.3 5.5 5.8 6.4 5.9 6.0 6.4 6.0 5.2 4.8 5.2 4.9 4.7 5.2
4.4 5.5 5.1 4.1 4.3 4.8 4.5 3.5 3.3 3.5 4.4 4.5 4.5 4.4 4.5 4.6 4.8 5.2 5.4 5.7 5.7 5.9 6.2 5.7 5.1 4.8 4.7 5.0 5.3 4.7 4.9 4.9
4.9 5.8 5.0 5.6 5.2 4.3 3.4 3.0 3.2 3.8 4.2 4.1 4.0 3.9 4.0 4.3 4.8 5.0 5.5 5.4 5.4 5.5 4.9 4.9 4.8 4.5 4.5 5.0 4.8 5.0 5.0 5.0
4.3 4.9 5.5 5.0 4.0 2.7 2.7 2.9 3.3 3.5 3.8 3.9 3.6 3.4 3.8 4.2 4.3 4.6 4.4 4.7 4.8 4.7 4.1 3.9 4.0 4.3 4.2 4.1 4.1 4.1 4.0 4.5
4.1 4.1 4.4 4.4 3.1 2.7 2.5 2.8 3.1 3.1 3.7 3.9 3.6 3.0 3.2 3.3 3.3 3.7 3.8 3.8 3.3 3.4 3.2 3.6 3.7 4.0 4.0 3.6 3.4 3.5 3.6 4.1
4.0 4.1 4.4 3.7 2.6 2.7 2.7 3.0 3.1 3.6 4.2 4.5 4.1 3.1 2.4 2.9 2.8 3.1 3.1 3.3 3.2 2.8 3.0 3.0 3.2 3.4 3.4 3.2 2.9 3.1 3.2 3.3
4.2 4.1 3.9 3.4 2.7 2.6 2.6 3.3 3.9 4.1 4.1 4.1 3.7 3.3 2.8 2.5 1.9 2.0 2.3 2.9 3.2 3.1 2.7 2.4 2.2 2.9 2.4 2.8 2.6 2.7 3.0 3.3
3.5 3.6 4.2 3.3 2.7 2.9 3.0 3.5 3.9 3.3 3.1 3.5 3.8 3.6 3.0 2.8 2.0 1.8 1.9 2.6 2.8 2.8 2.3 2.3 1.8 2.4 1.7 2.1 2.5 3.0 3.3 3.8
3.5 4.3 3.0 2.5 2.1 2.8 2.8 3.3 3.5 3.2 3.1 3.1 3.4 3.4 3.2 2.5 1.6 1.5 2.0 2.4 2.6 1.7 1.2 0.5 0.5 0.7 0.9 0.5 1.6 3.1 4.0 4.5
3.3 3.0 2.7 2.0 2.0 2.7 2.9 2.9 3.0 2.8 2.4 2.3 2.8 3.1 3.2 2.8 1.8 1.7 2.5 2.2 1.6 1.8 0.2 0.9 1.0 1.3 2.2 0.9 1.4 2.1 3.1 4.3
3.1 2.5 1.8 1.6 1.4 1.9 2.2 2.1 2.2 2.3 2.1 2.6 2.8 2.5 2.8 2.5 2.0 2.1 2.4 1.1 0.4 0.7 1.0 0.4 1.0 1.3 3.5 2.6 1.2 1.6 2.7 2.9
2.4 1.8 1.3 1.7 1.8 2.0 1.7 1.7 1.5 1.4 2.0 2.4 2.0 2.1 2.4 2.6 2.2 1.7 1.7 0.5 0.6 1.5 1.1 2.0 1.4 0.6 1.8 2.1 1.5 1.6 2.2 2.3
2.2 2.2 1.4 2.1 2.5 1.2 1.8 1.2 1.0 1.3 1.5 1.5 2.1 2.4 2.9 2.7 2.0 1.0 1.1 0.2 0.8 1.0 1.6 1.3 0.7 0.1 1.9 1.3 2.3 3.1 3.5 3.1
2.5 2.1 1.4 2.0 1.9 1.1 -0.1 0.4 0.9 0.9 0.4 0.3 1.0 2.5 2.9 2.6 1.9 1.2 0.9 1.0 0.4 0.5 1.3 1.7 0.7 -0.2 1.0 3.0 3.8 4.2 2.8 3.1
2.2 1.6 1.3 1.8 1.4 1.8 1.3 1.9 1.3 0.7 0.2 -0.3 0.6 2.2 1.9 2.1 1.7 1.3 0.8 0.9 0.2 0.7 0.8 0.1 0.0 0.9 1.5 2.4 2.6 3.5 4.8 4.8
1.6 1.7 1.5 2.8 2.3 2.5 1.9 1.8 1.2 0.8 -0.2 -0.0 -0.1 0.6 1.6 1.6 1.4 1.1 0.6 0.7 1.3 2.1 1.6 0.4 -0.1 0.7 1.5 2.6 3.5 3.2 3.4 4.2
0.7 1.2 1.7 2.1 2.2 1.5 1.6 1.0 0.4 1.3 0.2 0.1 -0.1 -0.4 -0.2 0.9 1.2 1.7 2.2 1.9 2.1 1.4 -0.2 0.9 0.6 1.1 2.1 3.1 4.4 4.9 4.9 4.1
0.9 1.4 2.0 1.7 1.2 1.0 1.0 1.1 1.9 3.0 1.3 0.3 -0.3 -0.5 -0.9 -0.0 1.0 0.6 2.0 2.8 1.6 2.1 1.5 1.6 1.3 1.8 2.8 3.7 4.0 4.3 4.3 4.4
1.1 1.3 2.7 1.8 1.1 0.8 1.4 2.7 2.3 2.6 1.3 0.2 0.3 0.0 0.4 1.4 1.4 2.3 2.1 2.0 2.4 3.4 2.2 1.3 1.9 2.3 3.2 3.3 3.9 3.8 3.9 4.2
Wind_Speed
19 18 22 17 18 18 18 19 21 21 20 19 17 17 17 15 15 14 15 16 17 19 18 20 21 19 19 17 17 16 14 12
23 22 14 11 13 18 18 20 18 19 19 19 19 18 16 15 13 14 13 13 15 18 20 18 18 17 16 16 15 13 13 9
21 14 13 14 14 12 14 18 19 21 17 18 16 14 11 11 11 11 12 11 13 15 17 19 19 17 15 13 14 11 9 7
12 1 6 9 10 10 12 15 17 18 16 15 14 12 9 10 9 11 9 12 13 16 18 19 19 18 15 15 14 10 8 6
13 8 4 7 7 10 10 11 13 14 15 13 11 10 10 8 7 8 13 16 15 17 19 21 20 18 16 17 15 13 11 9
14 17 9 5 8 9 9 9 12 12 12 10 11 8 7 6 8 11 14 13 16 19 17 18 18 16 16 17 15 13 12 10
12 9 5 5 6 8 8 8 10 11 11 8 10 10 7 9 11 12 13 15 16 14 15 14 15 15 15 15 13 11 11 10
15 10 7 9 5 7 7 9 11 11 11 10 9 12 13 10 9 10 13 17 15 16 13 11 10 10 10 12 11 13 13 13
8 6 8 7 7 8 9 10 10 9 11 14 11 12 11 12 10 8 12 17 17 15 12 10 9 7 8 10 10 10 11 11
7 6 7 7 8 9 9 9 10 9 10 11 11 10 11 13 11 8 14 14 13 9 6 4 4 4 3 4 6 6 7 9
7 7 7 7 8 9 8 11 10 10 10 10 11 13 15 15 12 12 14 12 8 5 4 3 2 2 3 3 3 3 6 6
6 6 7 7 5 6 5 4 4 9 8 9 12 14 16 15 13 13 12 9 4 4 3 4 2 1 1 2 2 2 4 6
7 8 8 8 3 4 3 3 2 2 6 11 12 15 16 15 13 11 8 4 4 3 3 3 2 1 2 2 2 2 3 4
8 9 10 8 7 3 3 3 2 2 6 8 13 16 16 13 12 8 9 4 5 4 3 2 1 1 2 1 3 3 2 2
11 10 10 9 7 5 3 5 4 2 2 3 6 14 14 14 13 12 11 9 4 3 2 2 2 2 3 3 1 1 2 2
9 9 10 9 9 8 6 5 4 4 4 3 6 12 14 16 17 15 12 10 5 3 3 4 3 2 2 2 1 3 2 4
8 10 11 9 11 10 7 4 3 2 4 7 5 9 15 16 17 14 11 10 6 4 2 4 3 2 2 1 0 1 1 2
9 11 11 10 12 9 10 9 7 6 5 5 5 4 8 13 16 15 11 9 5 5 7 4 3 2 2 2 3 2 2 3
10 10 10 7 10 9 9 10 10 13 12 8 9 6 4 6 11 9 8 8 9 5 4 4 3 2 3 3 2 3 2 2
11 12 14 12 11 10 9 10 7 7 9 8 7 7 8 15 11 11 9 10 9 6 2 2 2 3 4 4 3 4 3 3
Wind_Direction
93 86 90 107 111 122 125 125 124 124 125 119 121 123 119 117 107 97 90 86 90 95 104 97 102 116 110 102 96 91 88 81
109 107 129 108 117 129 133 122 128 122 113 126 133 131 125 115 106 96 97 98 91 94 103 98 96 99 95 88 84 84 87 93
100 138 127 115 121 134 129 129 122 115 130 137 132 124 120 116 105 108 103 97 90 89 95 104 92 84 80 73 73 67 68 67
118 136 104 116 122 144 129 118 124 131 142 143 141 135 125 112 108 102 100 105 98 96 93 90 87 83 73 71 67 56 51 40
117 149 144 120 141 139 110 126 133 142 153 155 136 126 131 125 105 90 96 104 99 96 86 80 82 79 73 75 68 58 52 45
150 164 209 191 145 119 133 149 150 156 165 153 147 136 125 116 127 112 101 102 93 88 85 84 78 72 75 71 65 59 49 39
183 191 211 183 132 142 151 163 162 165 166 178 162 155 143 128 121 115 106 104 100 94 89 86 74 71 72 68 59 49 48 38
185 199 196 163 149 154 166 167 174 174 178 181 152 154 143 131 119 107 97 104 105 100 94 90 85 85 70 61 70 66 56 48
180 177 179 165 159 162 170 172 175 169 161 163 153 147 141 130 116 108 114 114 110 107 97 94 83 75 64 56 72 69 71 58
168 174 179 168 154 165 173 165 170 150 144 154 154 147 148 137 124 127 129 121 119 112 102 73 68 60 63 61 64 92 80 68
179 172 173 160 151 159 168 164 173 147 159 168 152 148 155 142 130 134 131 119 105 105 64 94 67 54 83 72 39 85 83 75
170 165 154 146 135 124 122 121 144 156 166 174 160 156 154 137 128 129 127 109 102 78 87 48 74 82 48 52 15 57 77 56
179 160 165 151 145 142 139 162 148 116 169 163 154 150 146 138 130 123 122 106 98 108 108 88 38 9 82 347 344 353 24 43
181 183 170 171 165 141 153 146 141 131 134 124 145 146 147 134 131 126 117 103 86 68 78 134 136 38 136 141 21 337 340 33
191 186 175 173 161 128 85 83 71 76 89 106 136 147 141 137 127 118 110 116 115 109 142 175 146 90 64 131 52 258 305 314
181 169 175 178 167 165 161 170 156 185 153 130 124 144 133 133 126 120 115 114 111 134 161 156 101 79 49 66 110 149 227 322
182 177 185 178 183 184 172 154 116 123 116 120 124 126 126 126 126 119 114 117 127 133 118 69 89 120 146 178 34 42 160 216
175 181 195 182 186 180 175 154 138 145 132 143 145 131 128 127 123 124 131 123 110 111 94 100 121 120 141 175 188 189 217 210
178 180 204 196 191 182 169 161 166 176 167 166 157 154 142 150 146 144 144 122 128 134 122 133 149 176 188 211 217 224 192 212
176 185 198 196 193 194 183 180 179 186 172 160 165 165 164 167 151 145 153 165 143 144 143 121 166 206 211 216 230 239 204 202